Terug naar catalogus

M1

ActiefWetenschapSSO
NORAD 43779·PAYLOAD·🇦🇺 Australia

Gelanceerd Dec 3, 2018 vanaf Vandenberg Space Force Base

Loading…

Volgende Passages (komende 24 uur)

TLE

VersSource: Space-Track

Epoch: Sep 13, 2026, 15:11 UTC

1 43779U 18099X   26256.63312568  .00001613  00000-0  10871-3 0  9993
2 43779  97.4310 296.7218 0014508  90.6744 269.6147 15.07960328425466

Volg M1 in realtime met AllMySat

Download on the App Store